Voltar ao catálogo

COSMOS 2050

AtivoMilitarHEO
NORAD 20330·PAYLOAD·🇷🇺 Russia

Lançado Nov 23, 1989 de Plesetsk Cosmodrome

Loading…

Próximas Passagens (próximas 24 horas)

TLE

AtualizadoSource: Space-Track

Época: Sep 13, 2026, 11:10 UTC

1 20330U 89091A   26256.46567859  .00000595  00000-0  00000-0 0  9995
2 20330  65.7585  78.7477 5869636 162.6101 232.0186  2.00499114269577

Acompanhe COSMOS 2050 em tempo real com AllMySat

Download on the App Store